Barcelona, Spain

5:40 PM CEST en Mayo 24, 2017 (GMT +0200)
El Prat

Tiempo Historia de LEBL - Marzo, 2017

Change the Weather History Date:

Lunes, Marzo 20, 2017

  Actual Average Record
Temperature  
Temperatura media 58 ° F -  
Temperatura máxima 66 ° F 61 ° F 68 ° F (2001)
Temperatura mínima 51 ° F 48 ° F 41 ° F (2007)
Degree Days  
Grados día de calefacción 6    
Growing Degree Days 8 (Base 50)    
Moisture  
Punto de rocío 49 ° F    
Average Humidity 72    
Maximum Humidity 88    
Minimum Humidity 48    
Precipitación  
Precipitación 0.00 pul 0.07 pul - ()
Presión al nivel del mar  
Presión al nivel del mar 29.96 pul    
Viento  
Velocidad del viento 5 mph ()    
Velocidad máxima del viento 13 mph    
Max Gust Speed -    
Visibilidad 9.1 Millas    
Eventos      
Averages and records for this station are not official NWS values.
T = Trace of Precipitation, MM = Missing Value Source: Averaged Metar Reports

Daily Weather History Graph

Daily Weather History Graph

Search for Another Location

Airport or City:

Trip Planner

Search our weather history database for the weather conditions in past years. The results will help you decide how hot, cold, wet, or windy it might be!

Date:

Astronomía

Mar. 20, 2017 Salida Puesta
Hora real 6:55 AM CET 7:03 PM CET
Crepúsculo civil 6:27 AM CET 7:31 PM CET
Crepúsculo náutico 5:55 AM CET 8:03 PM CET
Crepúsculo astronómico 5:22 AM CET 8:36 PM CET
Luna 1:37 AM CET (3/20) 11:38 AM CET (3/20)
Horas de luz 13h 03m
Horas de luz
12h 08m
Gibosa menguante, 52% of the Moon is Illuminated
Mar 20
Gibosa menguante
Mar 20
Cuarto menguante
Mar 28
Nueva
Abr 3
Cuarto creciente
Abr 11
Luna llena

Hourly Weather History & Observations

Hora (CET) Temp. Punto de rocío Humedad Presión Visibilidad Wind Dir Velocidad del viento Velocidad de ráfagas Precip Eventos Condiciones
12:00 AM 56 ° F 50 ° F 73% 30.02 pul 10 mi Norte 1.2 mph - -  
12:00 AM 55.4 ° F 48.2 ° F 77% 30.01 pul 6.2 mi ONO 4.6 mph - N/A   Parcialmente nublado
12:30 AM 55.4 ° F 51.8 ° F 88% 30.01 pul 6.2 mi Oeste 4.6 mph - N/A   Parcialmente nublado
1:00 AM 54 ° F 47 ° F 70% 30.00 pul 11 mi NNO 2.3 mph - -   Nubes dispersas
1:00 AM 53.6 ° F 46.4 ° F 77% 30.01 pul 6.2 mi Oeste 4.6 mph - N/A   Parcialmente nublado
1:30 AM 53.6 ° F 46.4 ° F 77% 29.98 pul 6.2 mi NO 4.6 mph - N/A   Parcialmente nublado
2:00 AM 54 ° F 46 ° F 65% 29.99 pul 12 mi Sin viento Sin viento - -  
2:00 AM 53.6 ° F 46.4 ° F 77% 29.98 pul 6.2 mi NO 4.6 mph - N/A   Parcialmente nublado
2:30 AM 53.6 ° F 44.6 ° F 72% 29.98 pul 6.2 mi NO 6.9 mph - N/A   Parcialmente nublado
3:00 AM 52 ° F 43 ° F 64% 29.97 pul 12 mi NO 1.2 mph - -  
3:00 AM 51.8 ° F 42.8 ° F 71% 29.95 pul 6.2 mi NO 8.1 mph - N/A   Parcialmente nublado
3:30 AM 51.8 ° F 42.8 ° F 71% 29.95 pul 6.2 mi ONO 8.1 mph - N/A   Parcialmente nublado
4:00 AM 52 ° F 43 ° F 63% 29.96 pul 12 mi Norte 8.1 mph - -   Nubes dispersas
4:30 AM 51.8 ° F 41.0 ° F 67% 29.95 pul 6.2 mi ONO 8.1 mph - N/A   Parcialmente nublado
5:00 AM 52 ° F 42 ° F 61% 29.95 pul 14 mi Norte 4.6 mph - -  
5:00 AM 51.8 ° F 42.8 ° F 71% 29.95 pul 6.2 mi NO 11.5 mph - N/A   Parcialmente nublado
5:30 AM 51.8 ° F 42.8 ° F 71% 29.95 pul 6.2 mi NO 11.5 mph - N/A   Parcialmente nublado
6:00 AM 53 ° F 43 ° F 59% 29.96 pul 18 mi Norte 9.2 mph - -  
6:00 AM 51.8 ° F 42.8 ° F 71% 29.95 pul 6.2 mi NO 12.7 mph - N/A   Parcialmente nublado
6:30 AM 51.8 ° F 42.8 ° F 71% 29.95 pul 6.2 mi NNO 11.5 mph - N/A   Parcialmente nublado
7:00 AM 52 ° F 43 ° F 62% 29.97 pul 11 mi Norte 8.1 mph - -   Nubes dispersas
7:00 AM 51.8 ° F 42.8 ° F 71% 29.95 pul 6.2 mi NNO 9.2 mph - N/A   Parcialmente nublado
7:30 AM 51.8 ° F 42.8 ° F 71% 29.95 pul 6.2 mi NO 9.2 mph - N/A   Parcialmente nublado
8:00 AM 53 ° F 43 ° F 61% 29.97 pul 11 mi Norte 6.9 mph - -  
8:00 AM 51.8 ° F 42.8 ° F 71% 29.95 pul 6.2 mi NO 10.4 mph - N/A   Parcialmente nublado
8:30 AM 53.6 ° F 42.8 ° F 67% 29.98 pul 6.2 mi NO 9.2 mph - N/A   Parcialmente nublado
9:00 AM 58 ° F 46 ° F 55% 29.99 pul 11 mi ONO 2.3 mph - -  
9:00 AM 55.4 ° F 46.4 ° F 72% 29.98 pul 6.2 mi NO 5.8 mph - N/A   Parcialmente nublado
9:30 AM 59.0 ° F 50.0 ° F 72% 29.98 pul 6.2 mi Oeste 4.6 mph - N/A   Parcialmente nublado
10:00 AM 62 ° F 52 ° F 61% 29.99 pul 12 mi OSO 4.6 mph - -   Nubes dispersas
10:00 AM 60.8 ° F 51.8 ° F 72% 29.98 pul 6.2 mi Oeste 3.5 mph - N/A   Parcialmente nublado
10:30 AM 62.6 ° F 51.8 ° F 68% 29.98 pul 6.2 mi Variable 2.3 mph - N/A   Parcialmente nublado
11:00 AM 62 ° F 52 ° F 62% 29.99 pul 16 mi SSO 8.1 mph - -  
11:00 AM 59.0 ° F 51.8 ° F 77% 29.98 pul 6.2 mi Sur 6.9 mph - N/A   Parcialmente nublado
11:30 AM 60.8 ° F 51.8 ° F 72% 29.98 pul - SSO 5.8 mph - N/A   Despejado
12:00 PM 60.8 ° F 51.8 ° F 72% 29.98 pul - SSO 6.9 mph - N/A   Despejado
12:30 PM 60.8 ° F 51.8 ° F 72% 29.98 pul - SSO 8.1 mph - N/A   Despejado
1:00 PM 65 ° F 51 ° F 51% 29.98 pul 16 mi SO 4.6 mph - -   Despejado
1:00 PM 62.6 ° F 50.0 ° F 63% 29.98 pul - Sur 5.8 mph - N/A   Despejado
1:30 PM 64.4 ° F 44.6 ° F 49% 29.98 pul - ESE 6.9 mph - N/A   Despejado
2:00 PM 65 ° F 50 ° F 48% 29.97 pul 15 mi SSE 6.9 mph - -  
2:00 PM 62.6 ° F 46.4 ° F 55% 29.95 pul - Sur 6.9 mph - N/A   Despejado
2:30 PM 62.6 ° F 51.8 ° F 68% 29.95 pul - Sur 6.9 mph - N/A   Despejado
3:00 PM 64 ° F 52 ° F 56% 29.96 pul 13 mi SSO 6.9 mph - -  
3:00 PM 60.8 ° F 51.8 ° F 72% 29.95 pul - Sur 5.8 mph - N/A   Despejado
3:30 PM 62.6 ° F 50.0 ° F 63% 29.95 pul - Sur 5.8 mph - N/A   Despejado
4:00 PM 63 ° F 52 ° F 58% 29.95 pul 16 mi SSE 5.8 mph - -   Despejado
4:00 PM 60.8 ° F 51.8 ° F 72% 29.95 pul - SE 4.6 mph - N/A   Despejado
4:30 PM 60.8 ° F 51.8 ° F 72% 29.95 pul - SSE 4.6 mph - N/A   Despejado
5:00 PM 62 ° F 54 ° F 68% 29.94 pul 12 mi SSO 6.9 mph - -  
5:00 PM 59.0 ° F 53.6 ° F 82% 29.92 pul - Sur 5.8 mph - N/A   Despejado
5:30 PM 59.0 ° F 53.6 ° F 82% 29.92 pul - SSO 5.8 mph - N/A   Despejado
6:00 PM 61 ° F 53 ° F 68% 29.94 pul 19 mi SO 5.8 mph - -  
6:00 PM 59.0 ° F 51.8 ° F 77% 29.92 pul - Sur 5.8 mph - N/A   Despejado
6:30 PM 59.0 ° F 51.8 ° F 77% 29.92 pul - SSO 5.8 mph - N/A   Despejado
7:00 PM 58 ° F 52 ° F 76% 29.94 pul 12 mi OSO 6.9 mph - -   Despejado
7:00 PM 57.2 ° F 51.8 ° F 82% 29.92 pul - SO 5.8 mph - N/A   Despejado
7:30 PM 57.2 ° F 51.8 ° F 82% 29.95 pul - SSO 4.6 mph - N/A   Despejado
8:00 PM 58 ° F 53 ° F 79% 29.95 pul 12 mi SO 4.6 mph - -  
8:00 PM 57.2 ° F 53.6 ° F 88% 29.95 pul - SSO 4.6 mph - N/A   Despejado
8:30 PM 57.2 ° F 53.6 ° F 88% 29.95 pul - SO 3.5 mph - N/A   Despejado
9:00 PM 57 ° F 53 ° F 84% 29.96 pul 7 mi OSO 2.3 mph - -  
9:00 PM 57.2 ° F 53.6 ° F 88% 29.95 pul - SSO 2.3 mph - N/A   Despejado
9:30 PM 57.2 ° F 53.6 ° F 88% 29.95 pul - Sin viento Sin viento - N/A   Despejado
10:00 PM 57 ° F 54 ° F 85% 29.97 pul 9 mi Sin viento Sin viento - -   Nubes dispersas
10:00 PM 57.2 ° F 53.6 ° F 88% 29.95 pul 6.2 mi Sin viento Sin viento - N/A   Parcialmente nublado
10:30 PM 57.2 ° F 53.6 ° F 88% 29.95 pul 6.2 mi Sin viento Sin viento - N/A   Parcialmente nublado
11:00 PM 56 ° F 51 ° F 79% 29.98 pul 5 mi Norte 4.6 mph - -   Neblina
11:00 PM 55.4 ° F 51.8 ° F 88% 29.98 pul 5.6 mi Sin viento Sin viento - N/A   Parcialmente nublado
11:30 PM 53.6 ° F 46.4 ° F 77% 29.98 pul 6.2 mi Sin viento Sin viento - N/A   Parcialmente nublado